Los Angeles, CA

1:35 AM PST on February 06, 2016 (GMT -0800)
Los Angeles International

Weather History for KLAX - November, 2013

Change the Weather History Date:

Thursday, November 28, 2013

  Actual Average Record
Temperature  
Mean Temperature 62 °F 58 °F  
Max Temperature 69 °F 67 °F 85 °F (1977)
Min Temperature 54 °F 51 °F 39 °F (1945)
Degree Days  
Heating Degree Days 3 7  
Month to date heating degree days 52 124  
Since 1 July heating degree days 92 168  
Cooling Degree Days 0 0  
Month to date cooling degree days 40 18  
Year to date cooling degree days 702 549  
Growing Degree Days 12 (Base 50)    
Moisture  
Dew Point 46 °F    
Average Humidity 58    
Maximum Humidity 78    
Minimum Humidity 37    
Precipitation  
Precipitation 0.00 in 0.05 in 1.79 in (1970)
Month to date precipitation 0.38 1.02  
Year to date precipitation 3.04 10.68  
Since 1 July precipitation 0.43  
Sea Level Pressure  
Sea Level Pressure 29.97 in    
Wind  
Wind Speed 6 mph (ESE)    
Max Wind Speed 14 mph    
Max Gust Speed 22 mph    
Visibility 10 miles    
Events      
T = Trace of Precipitation, MM = Missing Value Source: NWS Daily Summary

Daily Weather History Graph

Daily Weather History Graph

Search for Another Location

Airport or City:

Trip Planner

Search our weather history database for the weather conditions in past years. The results will help you decide how hot, cold, wet, or windy it might be!

Date:

Astronomy

Nov. 28, 2013 Rise Set
Actual Time 6:38 AM PST 4:44 PM PST
Civil Twilight 6:11 AM PST 5:12 PM PST
Nautical Twilight 5:40 AM PST 5:42 PM PST
Astronomical Twilight 5:10 AM PST 6:13 PM PST
Moon 1:57 AM PST (11/28) 1:46 PM PST (11/28)
Length of Visible Light 11h 00m
Length of Day
10h 06m
Waning Crescent, 21% of the Moon is Illuminated
Nov 28
Waning Crescent
Dec 2
New
Dec 9
First Quarter
Dec 17
Full
Dec 25
Last Quarter

Hourly Weather History & Observations

Time (PST) Temp. Dew Point Humidity Pressure Visibility Wind Dir Wind Speed Gust Speed Precip Events Conditions
12:53 AM 59.0 °F 42.1 °F 53% 29.91 in 10.0 mi NE 6.9 mph - N/A   Mostly Cloudy
1:53 AM 57.0 °F 41.0 °F 55% 29.91 in 10.0 mi NE 5.8 mph - N/A   Mostly Cloudy
2:53 AM 55.9 °F 41.0 °F 57% 29.90 in 10.0 mi NE 6.9 mph - N/A   Mostly Cloudy
3:53 AM 55.9 °F 41.0 °F 57% 29.89 in 10.0 mi ESE 3.5 mph - N/A   Mostly Cloudy
4:53 AM 55.9 °F 39.0 °F 53% 29.89 in 10.0 mi Calm Calm - N/A   Scattered Clouds
5:53 AM 57.0 °F 37.9 °F 49% 29.90 in 10.0 mi NNE 3.5 mph - N/A   Mostly Cloudy
6:53 AM 57.0 °F 37.9 °F 49% 29.94 in 10.0 mi Calm Calm - N/A   Mostly Cloudy
7:53 AM 57.9 °F 37.9 °F 47% 29.94 in 10.0 mi NE 8.1 mph - N/A   Mostly Cloudy
8:53 AM 60.1 °F 37.9 °F 44% 29.96 in 10.0 mi ENE 8.1 mph - N/A   Mostly Cloudy
9:53 AM 64.9 °F 48.0 °F 54% 29.98 in 10.0 mi ESE 5.8 mph - N/A   Mostly Cloudy
10:53 AM 68.0 °F 46.0 °F 45% 29.98 in 10.0 mi ESE 8.1 mph - N/A   Mostly Cloudy
11:53 AM 69.1 °F 42.1 °F 38% 29.96 in 10.0 mi SSE 10.4 mph 18.4 mph N/A   Scattered Clouds
12:53 PM 68.0 °F 45.0 °F 43% 29.95 in 10.0 mi SSE 11.5 mph - N/A   Mostly Cloudy
1:53 PM 68.0 °F 48.0 °F 49% 29.95 in 10.0 mi ESE 8.1 mph - N/A   Mostly Cloudy
2:53 PM 66.9 °F 48.0 °F 51% 29.95 in 10.0 mi SE 6.9 mph - N/A   Mostly Cloudy
3:53 PM 66.0 °F 45.0 °F 47% 29.96 in 10.0 mi SSE 6.9 mph - N/A   Scattered Clouds
4:53 PM 64.0 °F 48.9 °F 58% 29.97 in 10.0 mi SE 5.8 mph - N/A   Scattered Clouds
5:53 PM 63.0 °F 50.0 °F 63% 30.00 in 10.0 mi SSE 6.9 mph - N/A   Scattered Clouds
6:53 PM 62.1 °F 52.0 °F 70% 30.01 in 10.0 mi SSE 3.5 mph - N/A   Mostly Cloudy
7:53 PM 62.1 °F 53.1 °F 72% 30.03 in 10.0 mi Calm Calm - N/A   Mostly Cloudy
8:53 PM 61.0 °F 53.1 °F 75% 30.04 in 10.0 mi East 3.5 mph - N/A   Mostly Cloudy
9:53 PM 60.1 °F 52.0 °F 75% 30.05 in 10.0 mi East 4.6 mph - N/A   Partly Cloudy
10:53 PM 59.0 °F 52.0 °F 78% 30.05 in 10.0 mi East 4.6 mph - N/A   Partly Cloudy
11:53 PM 60.1 °F 54.0 °F 80% 30.05 in 10.0 mi East 3.5 mph - N/A   Mostly Cloudy